| time (UTC) | temp C | wind direction | speed KPH | gust KPH | rain 1hr cm | rain 24hr cm | rain mn cm | humidity % | barometer mb |
| 20260510140544 | 11 | 25 | 9.7 | 20.9 | 0.00 | 0.00 | 0.00 | 65 | 1013.1 |
| 20260510140040 | 12 | 342 | 14.5 | 25.7 | 0.00 | 0.00 | 0.00 | 65 | 1012.9 |
| 20260510135536 | 12 | 24 | 8.0 | 24.1 | 0.00 | 0.00 | 0.00 | 64 | 1013.0 |
| 20260510135033 | 12 | 357 | 11.3 | 25.7 | 0.00 | 0.00 | 0.00 | 63 | 1013.1 |
| 20260510134529 | 12 | 18 | 6.4 | 9.7 | 0.00 | 0.00 | 0.00 | 63 | 1012.9 |
| 20260510134025 | 12 | 41 | 14.5 | 20.9 | 0.00 | 0.00 | 0.00 | 63 | 1013.1 |
| 20260510133521 | 12 | 43 | 8.0 | 20.9 | 0.00 | 0.00 | 0.00 | 64 | 1013.0 |
| 20260510133017 | 12 | 350 | 4.8 | 17.7 | 0.00 | 0.00 | 0.00 | 65 | 1013.1 |
| 20260510132513 | 12 | 103 | 3.2 | 24.1 | 0.00 | 0.00 | 0.00 | 66 | 1013.1 |
| 20260510132009 | 12 | 21 | 8.0 | 22.5 | 0.00 | 0.00 | 0.00 | 65 | 1013.2 |
| 20260510131505 | 12 | 108 | 4.8 | 16.1 | 0.00 | 0.00 | 0.00 | 64 | 1013.2 |
| 20260510131001 | 12 | 46 | 8.0 | 16.1 | 0.00 | 0.00 | 0.00 | 64 | 1013.2 |
| 20260510130457 | 12 | 294 | 4.8 | 17.7 | 0.00 | 0.00 | 0.00 | 65 | 1013.4 |
| 20260510125953 | 12 | 59 | 20.9 | 27.4 | 0.00 | 0.00 | 0.00 | 64 | 1013.2 |
| 20260510125449 | 12 | 92 | 12.9 | 20.9 | 0.00 | 0.00 | 0.00 | 65 | 1013.5 |
| 20260510124945 | 12 | 60 | 11.3 | 14.5 | 0.00 | 0.00 | 0.00 | 64 | 1013.5 |
| 20260510124441 | 12 | 38 | 11.3 | 22.5 | 0.00 | 0.00 | 0.00 | 64 | 1013.3 |
| 20260510123937 | 12 | 22 | 19.3 | 24.1 | 0.00 | 0.00 | 0.00 | 65 | 1013.5 |
| 20260510123432 | 12 | 342 | 12.9 | 27.4 | 0.00 | 0.00 | 0.00 | 65 | 1013.5 |
| 20260510122928 | 12 | 8 | 8.0 | 17.7 | 0.00 | 0.00 | 0.00 | 66 | 1013.7 |
| 20260510122424 | 12 | 26 | 9.7 | 35.4 | 0.00 | 0.00 | 0.00 | 67 | 1013.6 |
| 20260510121920 | 12 | 27 | 6.4 | 25.7 | 0.00 | 0.00 | 0.00 | 67 | 1013.7 |
| 20260510121416 | 12 | 340 | 14.5 | 22.5 | 0.00 | 0.00 | 0.00 | 66 | 1013.5 |
| 20260510120912 | 12 | 36 | 6.4 | 14.5 | 0.00 | 0.00 | 0.00 | 66 | 1013.5 |
| 20260510120408 | 12 | 104 | 3.2 | 20.9 | 0.00 | 0.00 | 0.00 | 67 | 1013.7 |
| 20260510115904 | 12 | 66 | 14.5 | 27.4 | 0.00 | 0.00 | 0.00 | 66 | 1013.6 |
| 20260510115401 | 12 | 2 | 14.5 | 22.5 | 0.00 | 0.00 | 0.00 | 66 | 1013.8 |
| 20260510114857 | 12 | 14 | 9.7 | 20.9 | 0.00 | 0.00 | 0.00 | 66 | 1013.7 |
| 20260510114353 | 12 | 46 | 12.9 | 17.7 | 0.00 | 0.00 | 0.00 | 67 | 1014.0 |
| 20260510113849 | 12 | 84 | 6.4 | 14.5 | 0.00 | 0.00 | 0.00 | 68 | 1013.9 |
| 20260510113345 | 12 | 39 | 9.7 | 16.1 | 0.00 | 0.00 | 0.00 | 67 | 1014.2 |
| 20260510112841 | 12 | 24 | 4.8 | 24.1 | 0.00 | 0.00 | 0.00 | 67 | 1014.0 |
| 20260510112337 | 12 | 64 | 3.2 | 20.9 | 0.00 | 0.00 | 0.00 | 68 | 1014.1 |
| 20260510111833 | 11 | 25 | 6.4 | 20.9 | 0.00 | 0.00 | 0.00 | 68 | 1014.3 |
| 20260510111329 | 12 | 18 | 17.7 | 25.7 | 0.00 | 0.00 | 0.00 | 67 | 1014.2 |
| 20260510110824 | 12 | 358 | 8.0 | 22.5 | 0.00 | 0.00 | 0.00 | 67 | 1014.2 |
| 20260510110320 | 11 | 30 | 16.1 | 22.5 | 0.00 | 0.00 | 0.00 | 67 | 1014.0 |
| 20260510105816 | 12 | 20 | 11.3 | 25.7 | 0.00 | 0.00 | 0.00 | 67 | 1014.5 |
| 20260510105312 | 12 | 48 | 12.9 | 20.9 | 0.00 | 0.00 | 0.00 | 68 | 1014.3 |
| 20260510104809 | 12 | 67 | 6.4 | 11.3 | 0.00 | 0.00 | 0.00 | 67 | 1014.3 |
| 20260510104305 | 12 | 23 | 9.7 | 30.6 | 0.00 | 0.00 | 0.00 | 67 | 1014.3 |
| 20260510103801 | 12 | 27 | 14.5 | 29.0 | 0.00 | 0.00 | 0.00 | 66 | 1014.3 |
| 20260510103257 | 12 | 19 | 14.5 | 22.5 | 0.00 | 0.00 | 0.00 | 67 | 1014.3 |
| 20260510102753 | 12 | 30 | 16.1 | 25.7 | 0.00 | 0.00 | 0.00 | 66 | 1014.4 |
| 20260510102249 | 12 | 17 | 11.3 | 25.7 | 0.00 | 0.00 | 0.00 | 67 | 1014.2 |
| 20260510101745 | 12 | 15 | 22.5 | 29.0 | 0.00 | 0.00 | 0.00 | 67 | 1014.4 |
| 20260510101240 | 12 | 12 | 12.9 | 24.1 | 0.00 | 0.00 | 0.00 | 67 | 1014.3 |
| 20260510100736 | 12 | 321 | 14.5 | 30.6 | 0.00 | 0.00 | 0.00 | 68 | 1014.0 |
| 20260510100232 | 12 | 24 | 9.7 | 30.6 | 0.00 | 0.00 | 0.00 | 68 | 1014.1 |
| 20260510095728 | 12 | 19 | 8.0 | 17.7 | 0.00 | 0.00 | 0.00 | 69 | 1014.0 |
| 20260510095225 | 12 | 50 | 9.7 | 17.7 | 0.00 | 0.00 | 0.00 | 70 | 1014.2 |
| 20260510094721 | 11 | 49 | 11.3 | 24.1 | 0.00 | 0.00 | 0.00 | 70 | 1014.3 |
| 20260510094217 | 12 | 65 | 11.3 | 22.5 | 0.00 | 0.00 | 0.00 | 70 | 1014.2 |
| 20260510093712 | 12 | 4 | 8.0 | 25.7 | 0.00 | 0.00 | 0.00 | 70 | 1014.0 |
| 20260510093208 | 12 | 33 | 9.7 | 14.5 | 0.00 | 0.00 | 0.00 | 70 | 1014.3 |
| 20260510092704 | 12 | 25 | 3.2 | 16.1 | 0.00 | 0.00 | 0.00 | 70 | 1014.3 |
| 20260510092200 | 12 | 334 | 12.9 | 17.7 | 0.00 | 0.00 | 0.00 | 71 | 1014.2 |
| 20260510091656 | 11 | 327 | 14.5 | 22.5 | 0.00 | 0.00 | 0.00 | 71 | 1014.1 |
| 20260510091152 | 11 | 30 | 8.0 | 22.5 | 0.00 | 0.00 | 0.00 | 71 | 1014.5 |
| 20260510090648 | 11 | 13 | 11.3 | 17.7 | 0.00 | 0.00 | 0.00 | 72 | 1014.5 |
| 20260510090144 | 11 | 336 | 6.4 | 17.7 | 0.00 | 0.00 | 0.00 | 71 | 1014.5 |
| 20260510085640 | 11 | 20 | 3.2 | 12.9 | 0.00 | 0.00 | 0.00 | 72 | 1014.4 |
| 20260510085137 | 11 | 68 | 11.3 | 25.7 | 0.00 | 0.00 | 0.00 | 71 | 1014.6 |
| 20260510084633 | 11 | 6 | 4.8 | 17.7 | 0.00 | 0.00 | 0.00 | 72 | 1014.8 |
| 20260510084129 | 11 | 10 | 17.7 | 24.1 | 0.00 | 0.00 | 0.00 | 72 | 1014.8 |
| 20260510083625 | 11 | 44 | 16.1 | 20.9 | 0.00 | 0.00 | 0.00 | 72 | 1015.0 |
| 20260510083121 | 11 | 45 | 14.5 | 25.7 | 0.00 | 0.00 | 0.00 | 72 | 1014.6 |
| 20260510082617 | 11 | 64 | 4.8 | 20.9 | 0.00 | 0.00 | 0.00 | 72 | 1014.9 |
| 20260510082113 | 11 | 358 | 17.7 | 27.4 | 0.00 | 0.00 | 0.00 | 73 | 1014.9 |
| 20260510081609 | 11 | 71 | 8.0 | 24.1 | 0.00 | 0.00 | 0.00 | 74 | 1014.6 |
| 20260510081105 | 11 | 20 | 16.1 | 25.7 | 0.00 | 0.00 | 0.00 | 74 | 1014.6 |
| 20260510080601 | 11 | 42 | 11.3 | 17.7 | 0.00 | 0.00 | 0.00 | 75 | 1014.7 |
| 20260510080057 | 11 | 289 | 6.4 | 24.1 | 0.00 | 0.00 | 0.00 | 75 | 1014.7 |
| 20260510075553 | 11 | 54 | 9.7 | 14.5 | 0.00 | 0.00 | 0.00 | 76 | 1014.5 |
| 20260510075049 | 10 | 27 | 16.1 | 22.5 | 0.00 | 0.00 | 0.00 | 76 | 1014.7 |
| 20260510074545 | 10 | 41 | 14.5 | 24.1 | 0.00 | 0.00 | 0.00 | 76 | 1014.6 |
| 20260510074041 | 10 | 22 | 20.9 | 25.7 | 0.00 | 0.00 | 0.00 | 76 | 1014.7 |
| 20260510073537 | 10 | 84 | 3.2 | 20.9 | 0.00 | 0.00 | 0.00 | 77 | 1014.8 |
| 20260510073033 | 10 | 51 | 9.7 | 14.5 | 0.00 | 0.00 | 0.00 | 78 | 1014.7 |
| 20260510072529 | 10 | 25 | 11.3 | 20.9 | 0.00 | 0.00 | 0.00 | 78 | 1014.7 |
| 20260510072025 | 10 | 17 | 11.3 | 29.0 | 0.00 | 0.00 | 0.00 | 79 | 1014.7 |
| 20260510071521 | 10 | 324 | 4.8 | 24.1 | 0.00 | 0.00 | 0.00 | 79 | 1014.9 |
| 20260510071017 | 10 | 344 | 16.1 | 25.7 | 0.00 | 0.00 | 0.00 | 80 | 1014.8 |
| 20260510070513 | 10 | 351 | 8.0 | 17.7 | 0.00 | 0.00 | 0.00 | 80 | 1014.6 |
| 20260510070009 | 10 | 33 | 11.3 | 29.0 | 0.00 | 0.00 | 0.00 | 80 | 1014.9 |
| 20260510065505 | 10 | 17 | 9.7 | 22.5 | 0.00 | 0.00 | 0.00 | 81 | 1014.9 |
| 20260510065001 | 10 | 8 | 11.3 | 24.1 | 0.00 | 0.00 | 0.00 | 81 | 1014.7 |
| 20260510064457 | 10 | 83 | 11.3 | 22.5 | 0.00 | 0.00 | 0.00 | 81 | 1014.7 |
| 20260510063953 | 10 | 64 | 8.0 | 24.1 | 0.00 | 0.00 | 0.00 | 82 | 1014.8 |
| 20260510063449 | 10 | 291 | 3.2 | 14.5 | 0.00 | 0.00 | 0.00 | 82 | 1014.8 |
| 20260510062945 | 10 | 344 | 4.8 | 6.4 | 0.00 | 0.00 | 0.00 | 82 | 1014.5 |
| 20260510062441 | 9 | 336 | 14.5 | 20.9 | 0.00 | 0.00 | 0.00 | 82 | 1014.7 |
| 20260510061937 | 9 | 32 | 9.7 | 16.1 | 0.00 | 0.00 | 0.00 | 83 | 1014.6 |
| 20260510061433 | 9 | 74 | 3.2 | 20.9 | 0.00 | 0.00 | 0.00 | 83 | 1014.7 |
| 20260510060929 | 10 | 53 | 4.8 | 9.7 | 0.00 | 0.00 | 0.00 | 83 | 1014.7 |
| 20260510060425 | 9 | 33 | 3.2 | 14.5 | 0.00 | 0.00 | 0.00 | 83 | 1014.4 |
| 20260510055921 | 9 | 37 | 4.8 | 17.7 | 0.00 | 0.00 | 0.00 | 83 | 1014.4 |
| 20260510055417 | 9 | 314 | 1.6 | 9.7 | 0.00 | 0.00 | 0.00 | 83 | 1014.4 |
| 20260510054913 | 9 | 18 | 9.7 | 25.7 | 0.00 | 0.00 | 0.00 | 83 | 1014.6 |
| 20260510054409 | 9 | 46 | 16.1 | 20.9 | 0.00 | 0.00 | 0.00 | 83 | 1014.5 |
| 20260510053905 | 9 | 318 | 9.7 | 17.7 | 0.00 | 0.00 | 0.00 | 83 | 1014.3 |
| 20260510053401 | 9 | 42 | 16.1 | 20.9 | 0.00 | 0.00 | 0.00 | 83 | 1014.2 |
| 20260510052857 | 10 | 3 | 12.9 | 17.7 | 0.00 | 0.00 | 0.00 | 83 | 1014.2 |
| 20260510052353 | 9 | 341 | 4.8 | 12.9 | 0.00 | 0.00 | 0.00 | 83 | 1014.4 |
| 20260510051849 | 9 | 350 | 11.3 | 16.1 | 0.00 | 0.00 | 0.00 | 83 | 1014.2 |
| 20260510051345 | 9 | 26 | 6.4 | 17.7 | 0.00 | 0.00 | 0.00 | 83 | 1014.3 |
| 20260510050841 | 9 | 339 | 16.1 | 25.7 | 0.00 | 0.00 | 0.00 | 83 | 1014.3 |
| 20260510050337 | 9 | 28 | 6.4 | 12.9 | 0.00 | 0.00 | 0.00 | 83 | 1014.1 |
| 20260510045833 | 9 | 36 | 11.3 | 22.5 | 0.00 | 0.00 | 0.00 | 83 | 1014.2 |
| 20260510045328 | 9 | 52 | 0.0 | 17.7 | 0.00 | 0.00 | 0.00 | 83 | 1014.3 |
| 20260510044825 | 9 | 32 | 6.4 | 12.9 | 0.00 | 0.00 | 0.00 | 83 | 1014.3 |
| 20260510044321 | 9 | 18 | 6.4 | 17.7 | 0.00 | 0.00 | 0.00 | 84 | 1014.4 |
| 20260510043817 | 9 | 359 | 3.2 | 22.5 | 0.00 | 0.00 | 0.00 | 84 | 1014.5 |
| 20260510043313 | 9 | 52 | 6.4 | 17.7 | 0.00 | 0.00 | 0.00 | 84 | 1014.5 |
| 20260510042809 | 9 | 18 | 8.0 | 16.1 | 0.00 | 0.00 | 0.00 | 84 | 1014.2 |
| 20260510042306 | 9 | 27 | 3.2 | 17.7 | 0.00 | 0.00 | 0.00 | 84 | 1014.5 |
| 20260510041801 | 9 | 341 | 11.3 | 12.9 | 0.00 | 0.00 | 0.00 | 84 | 1014.4 |
| 20260510041257 | 9 | 40 | 14.5 | 22.5 | 0.00 | 0.00 | 0.00 | 85 | 1014.5 |
| 20260510040753 | 9 | 50 | 3.2 | 12.9 | 0.00 | 0.00 | 0.00 | 85 | 1014.3 |
| 20260510040249 | 9 | 19 | 4.8 | 11.3 | 0.00 | 0.00 | 0.00 | 85 | 1014.5 |
| 20260510035745 | 9 | 18 | 8.0 | 14.5 | 0.00 | 0.00 | 0.00 | 85 | 1014.5 |
| 20260510035240 | 9 | 336 | 3.2 | 14.5 | 0.00 | 0.00 | 0.00 | 85 | 1014.4 |
| 20260510034736 | 9 | 346 | 3.2 | 12.9 | 0.00 | 0.00 | 0.00 | 85 | 1014.4 |
| 20260510034232 | 9 | 30 | 9.7 | 16.1 | 0.00 | 0.00 | 0.00 | 85 | 1014.5 |
| 20260510033728 | 9 | 19 | 11.3 | 17.7 | 0.00 | 0.00 | 0.00 | 85 | 1014.8 |
| 20260510033224 | 9 | 28 | 1.6 | 14.5 | 0.00 | 0.00 | 0.00 | 85 | 1014.9 |
| 20260510032720 | 9 | 326 | 6.4 | 11.3 | 0.00 | 0.00 | 0.00 | 84 | 1014.8 |
| 20260510032216 | 9 | 1 | 4.8 | 14.5 | 0.00 | 0.00 | 0.00 | 84 | 1014.8 |
| 20260510031712 | 9 | 319 | 8.0 | 16.1 | 0.00 | 0.00 | 0.00 | 84 | 1014.8 |
| 20260510031208 | 9 | 64 | 1.6 | 9.7 | 0.00 | 0.00 | 0.00 | 85 | 1014.7 |
| 20260510030704 | 9 | 30 | 3.2 | 14.5 | 0.00 | 0.00 | 0.00 | 85 | 1014.8 |
| 20260510030200 | 9 | 329 | 3.2 | 11.3 | 0.00 | 0.00 | 0.00 | 85 | 1014.6 |
| 20260510025656 | 9 | 21 | 8.0 | 11.3 | 0.00 | 0.00 | 0.00 | 85 | 1014.8 |
| 20260510025152 | 9 | 13 | 9.7 | 12.9 | 0.00 | 0.00 | 0.00 | 85 | 1015.1 |
| 20260510024648 | 9 | 355 | 8.0 | 17.7 | 0.00 | 0.00 | 0.00 | 85 | 1015.0 |
| 20260510024144 | 9 | 323 | 3.2 | 12.9 | 0.00 | 0.00 | 0.00 | 85 | 1014.9 |
| 20260510023640 | 9 | 25 | 3.2 | 12.9 | 0.00 | 0.00 | 0.00 | 85 | 1014.6 |
| 20260510023136 | 9 | 23 | 3.2 | 6.4 | 0.00 | 0.00 | 0.00 | 85 | 1014.7 |
| 20260510022632 | 9 | 31 | 12.9 | 17.7 | 0.00 | 0.00 | 0.00 | 85 | 1014.7 |
| 20260510022127 | 9 | 75 | 14.5 | 20.9 | 0.00 | 0.00 | 0.00 | 85 | 1014.6 |
| 20260510021623 | 9 | 322 | 3.2 | 16.1 | 0.00 | 0.00 | 0.00 | 85 | 1014.7 |
| 20260510021119 | 9 | 37 | 6.4 | 20.9 | 0.00 | 0.00 | 0.00 | 85 | 1014.7 |
| 20260510020615 | 9 | 350 | 14.5 | 22.5 | 0.00 | 0.00 | 0.00 | 84 | 1015.0 |
| 20260510020111 | 9 | 21 | 9.7 | 14.5 | 0.00 | 0.00 | 0.00 | 84 | 1015.0 |
| 20260510015607 | 9 | 6 | 9.7 | 17.7 | 0.00 | 0.00 | 0.00 | 84 | 1015.0 |
| 20260510015103 | 9 | 314 | 6.4 | 16.1 | 0.00 | 0.00 | 0.00 | 84 | 1015.1 |
| 20260510014559 | 9 | 6 | 12.9 | 20.9 | 0.00 | 0.00 | 0.00 | 83 | 1015.0 |
| 20260510014055 | 9 | 0 | 6.4 | 12.9 | 0.00 | 0.00 | 0.00 | 83 | 1015.2 |
| 20260510013551 | 9 | 32 | 6.4 | 12.9 | 0.00 | 0.00 | 0.00 | 82 | 1015.0 |
| 20260510013047 | 10 | 43 | 11.3 | 14.5 | 0.00 | 0.00 | 0.00 | 82 | 1015.1 |
| 20260510012543 | 10 | 37 | 11.3 | 14.5 | 0.00 | 0.00 | 0.00 | 81 | 1014.9 |
| 20260510012039 | 10 | 348 | 8.0 | 17.7 | 0.00 | 0.00 | 0.00 | 80 | 1014.9 |
| 20260510011535 | 10 | 330 | 3.2 | 9.7 | 0.00 | 0.00 | 0.00 | 79 | 1015.0 |
| 20260510011031 | 10 | 25 | 9.7 | 12.9 | 0.00 | 0.00 | 0.00 | 78 | 1014.7 |
| 20260510010527 | 10 | 17 | 6.4 | 22.5 | 0.00 | 0.00 | 0.00 | 77 | 1014.8 |
| 20260510010023 | 10 | 343 | 9.7 | 12.9 | 0.00 | 0.00 | 0.00 | 75 | 1015.0 |
| 20260510005519 | 10 | 21 | 9.7 | 17.7 | 0.00 | 0.00 | 0.00 | 73 | 1014.9 |
| 20260510005016 | 10 | 309 | 6.4 | 17.7 | 0.00 | 0.00 | 0.00 | 72 | 1014.8 |
| 20260510004512 | 10 | 41 | 8.0 | 11.3 | 0.00 | 0.00 | 0.00 | 71 | 1014.7 |
| 20260510004008 | 10 | 249 | 6.4 | 16.1 | 0.00 | 0.00 | 0.00 | 70 | 1014.8 |
| 20260510003504 | 10 | 22 | 4.8 | 6.4 | 0.00 | 0.00 | 0.00 | 69 | 1014.7 |
| 20260510003000 | 11 | 28 | 8.0 | 12.9 | 0.00 | 0.00 | 0.00 | 69 | 1014.9 |
| 20260510002456 | 11 | 57 | 4.8 | 11.3 | 0.00 | 0.00 | 0.00 | 69 | 1014.9 |
| 20260510001952 | 11 | 22 | 1.6 | 9.7 | 0.00 | 0.00 | 0.00 | 70 | 1014.8 |
| 20260510001448 | 11 | 325 | 9.7 | 16.1 | 0.00 | 0.00 | 0.00 | 70 | 1015.0 |
| 20260510000944 | 11 | 14 | 3.2 | 14.5 | 0.00 | 0.00 | 0.00 | 71 | 1014.8 |
| 20260510000440 | 11 | 23 | 9.7 | 20.9 | 0.00 | 0.00 | 0.00 | 71 | 1014.8 |
| 20260509235936 | 11 | 356 | 8.0 | 12.9 | 0.00 | 0.00 | 0.00 | 70 | 1014.9 |
| 20260509235432 | 11 | 349 | 4.8 | 16.1 | 0.00 | 0.00 | 0.00 | 70 | 1015.0 |
| 20260509234928 | 12 | 6 | 9.7 | 14.5 | 0.00 | 0.00 | 0.00 | 69 | 1014.9 |
| 20260509234424 | 12 | 18 | 9.7 | 16.1 | 0.00 | 0.00 | 0.00 | 68 | 1014.7 |
| 20260509233920 | 12 | 0 | 8.0 | 12.9 | 0.00 | 0.00 | 0.00 | 66 | 1014.9 |
| 20260509233416 | 12 | 295 | 4.8 | 6.4 | 0.00 | 0.00 | 0.00 | 65 | 1015.0 |
| 20260509232912 | 12 | 311 | 3.2 | 11.3 | 0.00 | 0.00 | 0.00 | 65 | 1015.1 |
| 20260509232408 | 12 | 65 | 4.8 | 12.9 | 0.00 | 0.00 | 0.00 | 64 | 1014.8 |
| 20260509231904 | 12 | 312 | 6.4 | 14.5 | 0.00 | 0.00 | 0.00 | 63 | 1015.0 |
| 20260509231400 | 12 | 18 | 3.2 | 14.5 | 0.00 | 0.00 | 0.00 | 63 | 1015.0 |
| 20260509230856 | 12 | 357 | 3.2 | 11.3 | 0.00 | 0.00 | 0.00 | 63 | 1015.0 |
| 20260509230352 | 12 | 8 | 6.4 | 12.9 | 0.00 | 0.00 | 0.00 | 63 | 1014.7 |
| 20260509225848 | 12 | 30 | 3.2 | 9.7 | 0.00 | 0.00 | 0.00 | 61 | 1015.1 |
| 20260509225343 | 12 | 42 | 12.9 | 12.9 | 0.00 | 0.00 | 0.00 | 60 | 1015.0 |
| 20260509224840 | 12 | 59 | 1.6 | 12.9 | 0.00 | 0.00 | 0.00 | 59 | 1015.0 |
| 20260509224335 | 12 | 340 | 9.7 | 12.9 | 0.00 | 0.00 | 0.00 | 58 | 1014.8 |
| 20260509223831 | 12 | 36 | 1.6 | 11.3 | 0.00 | 0.00 | 0.00 | 57 | 1014.9 |
| 20260509223327 | 13 | 12 | 12.9 | 16.1 | 0.00 | 0.00 | 0.00 | 57 | 1014.8 |
| 20260509222823 | 13 | 90 | 4.8 | 12.9 | 0.00 | 0.00 | 0.00 | 56 | 1015.0 |
| 20260509222319 | 13 | 353 | 3.2 | 9.7 | 0.00 | 0.00 | 0.00 | 55 | 1014.7 |
| 20260509221815 | 13 | 285 | 1.6 | 12.9 | 0.00 | 0.00 | 0.00 | 55 | 1014.8 |
| 20260509221311 | 13 | 32 | 4.8 | 12.9 | 0.00 | 0.00 | 0.00 | 55 | 1014.7 |
| 20260509220807 | 13 | 23 | 4.8 | 11.3 | 0.00 | 0.00 | 0.00 | 55 | 1015.0 |
| 20260509220303 | 13 | 23 | 3.2 | 11.3 | 0.00 | 0.00 | 0.00 | 55 | 1014.9 |
| 20260509215759 | 13 | 20 | 8.0 | 11.3 | 0.00 | 0.00 | 0.00 | 55 | 1014.7 |
| 20260509215256 | 13 | 23 | 3.2 | 11.3 | 0.00 | 0.00 | 0.00 | 55 | 1014.6 |
| 20260509214752 | 13 | 59 | 3.2 | 11.3 | 0.00 | 0.00 | 0.00 | 55 | 1014.8 |
| 20260509214248 | 13 | 51 | 8.0 | 9.7 | 0.00 | 0.00 | 0.00 | 54 | 1014.7 |
| 20260509213744 | 13 | 85 | 3.2 | 6.4 | 0.00 | 0.00 | 0.00 | 54 | 1014.6 |
| 20260509213239 | 13 | 34 | 4.8 | 16.1 | 0.00 | 0.00 | 0.00 | 54 | 1014.9 |
| 20260509212735 | 14 | 46 | 4.8 | 11.3 | 0.00 | 0.00 | 0.00 | 52 | 1014.7 |
| 20260509212231 | 14 | 29 | 8.0 | 11.3 | 0.00 | 0.00 | 0.00 | 51 | 1014.6 |
| 20260509211727 | 14 | 309 | 3.2 | 11.3 | 0.00 | 0.00 | 0.00 | 50 | 1014.4 |
| 20260509211223 | 14 | 59 | 4.8 | 6.4 | 0.00 | 0.00 | 0.00 | 49 | 1014.5 |
| 20260509210719 | 14 | 41 | 3.2 | 6.4 | 0.00 | 0.00 | 0.00 | 49 | 1014.4 |
| 20260509210215 | 14 | 71 | 4.8 | 6.4 | 0.00 | 0.00 | 0.00 | 49 | 1014.4 |
| 20260509205711 | 14 | 65 | 8.0 | 12.9 | 0.00 | 0.00 | 0.00 | 49 | 1014.4 |
| 20260509205208 | 14 | 38 | 6.4 | 16.1 | 0.00 | 0.00 | 0.00 | 48 | 1014.4 |
| 20260509204704 | 14 | 61 | 3.2 | 6.4 | 0.00 | 0.00 | 0.00 | 48 | 1014.3 |
| 20260509204200 | 14 | 48 | 6.4 | 6.4 | 0.00 | 0.00 | 0.00 | 47 | 1014.3 |
| 20260509203656 | 15 | 60 | 4.8 | 9.7 | 0.00 | 0.00 | 0.00 | 47 | 1014.4 |
| 20260509203152 | 15 | 57 | 1.6 | 4.8 | 0.00 | 0.00 | 0.00 | 46 | 1014.3 |
| 20260509202648 | 15 | 55 | 6.4 | 9.7 | 0.00 | 0.00 | 0.00 | 46 | 1014.3 |
| 20260509202144 | 15 | 28 | 6.4 | 11.3 | 0.00 | 0.00 | 0.00 | 45 | 1014.2 |
| 20260509201640 | 15 | 32 | 4.8 | 9.7 | 0.00 | 0.00 | 0.00 | 45 | 1014.1 |
| 20260509201136 | 15 | 53 | 3.2 | 6.4 | 0.00 | 0.00 | 0.00 | 44 | 1014.1 |
| 20260509200632 | 15 | 41 | 6.4 | 9.7 | 0.00 | 0.00 | 0.00 | 43 | 1014.1 |
| 20260509200128 | 15 | 79 | 4.8 | 14.5 | 0.00 | 0.00 | 0.00 | 43 | 1014.2 |
| 20260509195624 | 15 | 58 | 8.0 | 11.3 | 0.00 | 0.00 | 0.00 | 42 | 1014.2 |
| 20260509195120 | 15 | 35 | 4.8 | 11.3 | 0.00 | 0.00 | 0.00 | 41 | 1014.3 |
| 20260509194616 | 15 | 251 | 6.4 | 12.9 | 0.00 | 0.00 | 0.00 | 40 | 1014.2 |
| 20260509194112 | 15 | 46 | 4.8 | 11.3 | 0.00 | 0.00 | 0.00 | 40 | 1013.9 |
| 20260509193608 | 15 | 58 | 1.6 | 11.3 | 0.00 | 0.00 | 0.00 | 40 | 1014.0 |
| 20260509193104 | 15 | 358 | 8.0 | 16.1 | 0.00 | 0.00 | 0.00 | 40 | 1013.7 |
| 20260509192600 | 16 | 70 | 4.8 | 9.7 | 0.00 | 0.00 | 0.00 | 41 | 1013.8 |
| 20260509192056 | 16 | 107 | 12.9 | 17.7 | 0.00 | 0.00 | 0.00 | 40 | 1013.7 |
| 20260509191552 | 16 | 69 | 4.8 | 11.3 | 0.00 | 0.00 | 0.00 | 40 | 1013.8 |
| 20260509191048 | 16 | 37 | 3.2 | 16.1 | 0.00 | 0.00 | 0.00 | 40 | 1013.6 |
| 20260509190544 | 16 | 88 | 12.9 | 17.7 | 0.00 | 0.00 | 0.00 | 40 | 1013.8 |
| 20260509190040 | 16 | 47 | 6.4 | 12.9 | 0.00 | 0.00 | 0.00 | 42 | 1013.5 |
| 20260509185536 | 16 | 72 | 3.2 | 11.3 | 0.00 | 0.00 | 0.00 | 40 | 1013.6 |
| 20260509185031 | 16 | 49 | 8.0 | 11.3 | 0.00 | 0.00 | 0.00 | 40 | 1013.6 |
| 20260509184527 | 16 | 41 | 8.0 | 11.3 | 0.00 | 0.00 | 0.00 | 39 | 1013.6 |
| 20260509184023 | 16 | 100 | 8.0 | 20.9 | 0.00 | 0.00 | 0.00 | 38 | 1013.4 |
| 20260509183519 | 17 | 30 | 8.0 | 14.5 | 0.00 | 0.00 | 0.00 | 39 | 1013.6 |
| 20260509183015 | 17 | 126 | 3.2 | 9.7 | 0.00 | 0.00 | 0.00 | 40 | 1013.6 |
| 20260509182511 | 17 | 97 | 4.8 | 9.7 | 0.00 | 0.00 | 0.00 | 39 | 1013.5 |
| 20260509182007 | 17 | 53 | 9.7 | 12.9 | 0.00 | 0.00 | 0.00 | 40 | 1013.7 |
| 20260509181503 | 17 | 49 | 11.3 | 17.7 | 0.00 | 0.00 | 0.00 | 40 | 1013.5 |
| 20260509180959 | 17 | 92 | 3.2 | 12.9 | 0.00 | 0.00 | 0.00 | 40 | 1013.5 |
| 20260509180455 | 17 | 38 | 6.4 | 12.9 | 0.00 | 0.00 | 0.00 | 40 | 1013.3 |
| 20260509175951 | 17 | 35 | 6.4 | 11.3 | 0.00 | 0.00 | 0.00 | 41 | 1013.2 |
| 20260509175447 | 17 | 24 | 9.7 | 20.9 | 0.00 | 0.00 | 0.00 | 41 | 1013.1 |
| 20260509174944 | 17 | 51 | 8.0 | 17.7 | 0.00 | 0.00 | 0.00 | 41 | 1013.2 |
| 20260509174440 | 17 | 47 | 14.5 | 16.1 | 0.00 | 0.00 | 0.00 | 40 | 1013.1 |
| 20260509173936 | 17 | 58 | 1.6 | 9.7 | 0.00 | 0.00 | 0.00 | 40 | 1013.1 |
| 20260509173432 | 17 | 90 | 8.0 | 24.1 | 0.00 | 0.00 | 0.00 | 40 | 1013.3 |
| 20260509172928 | 18 | 19 | 14.5 | 22.5 | 0.00 | 0.00 | 0.00 | 41 | 1013.0 |
| 20260509172424 | 18 | 13 | 4.8 | 12.9 | 0.00 | 0.00 | 0.00 | 41 | 1013.0 |
| 20260509171920 | 18 | 43 | 8.0 | 20.9 | 0.00 | 0.00 | 0.00 | 41 | 1013.2 |
| 20260509171416 | 18 | 77 | 14.5 | 17.7 | 0.00 | 0.00 | 0.00 | 40 | 1013.1 |
| 20260509170912 | 18 | 86 | 9.7 | 20.9 | 0.00 | 0.00 | 0.00 | 43 | 1013.2 |
| 20260509170408 | 18 | 83 | 11.3 | 16.1 | 0.00 | 0.00 | 0.00 | 42 | 1013.0 |
| 20260509165904 | 18 | 22 | 6.4 | 17.7 | 0.00 | 0.00 | 0.00 | 43 | 1013.0 |
| 20260509165359 | 18 | 89 | 12.9 | 17.7 | 0.00 | 0.00 | 0.00 | 43 | 1013.3 |
| 20260509164856 | 18 | 112 | 4.8 | 12.9 | 0.00 | 0.00 | 0.00 | 43 | 1013.1 |
| 20260509164352 | 18 | 99 | 12.9 | 20.9 | 0.00 | 0.00 | 0.00 | 43 | 1013.1 |
| 20260509163848 | 18 | 78 | 11.3 | 27.4 | 0.00 | 0.00 | 0.00 | 43 | 1013.2 |
| 20260509163344 | 18 | 62 | 9.7 | 16.1 | 0.00 | 0.00 | 0.00 | 43 | 1013.1 |
| 20260509162840 | 18 | 139 | 17.7 | 22.5 | 0.00 | 0.00 | 0.00 | 43 | 1013.2 |
| 20260509162336 | 18 | 182 | 4.8 | 17.7 | 0.00 | 0.00 | 0.00 | 43 | 1013.1 |
| 20260509161832 | 19 | 26 | 9.7 | 16.1 | 0.00 | 0.00 | 0.00 | 43 | 1013.3 |
| 20260509161328 | 19 | 108 | 6.4 | 16.1 | 0.00 | 0.00 | 0.00 | 43 | 1013.3 |
| 20260509160824 | 18 | 92 | 3.2 | 22.5 | 0.00 | 0.00 | 0.00 | 44 | 1013.3 |
| 20260509160320 | 19 | 93 | 16.1 | 25.7 | 0.00 | 0.00 | 0.00 | 43 | 1013.3 |
| 20260509155815 | 19 | 84 | 8.0 | 16.1 | 0.00 | 0.00 | 0.00 | 43 | 1013.4 |
| 20260509155311 | 19 | 44 | 9.7 | 17.7 | 0.00 | 0.00 | 0.00 | 43 | 1013.4 |
| 20260509154807 | 19 | 89 | 9.7 | 14.5 | 0.00 | 0.00 | 0.00 | 43 | 1013.3 |
| 20260509154303 | 19 | 55 | 16.1 | 27.4 | 0.00 | 0.00 | 0.00 | 43 | 1013.3 |
| 20260509153759 | 20 | 65 | 6.4 | 17.7 | 0.00 | 0.00 | 0.00 | 42 | 1013.4 |
| 20260509153255 | 20 | 112 | 6.4 | 17.7 | 0.00 | 0.00 | 0.00 | 43 | 1013.4 |
| 20260509152751 | 19 | 127 | 17.7 | 22.5 | 0.00 | 0.00 | 0.00 | 43 | 1013.6 |
| 20260509152247 | 20 | 74 | 9.7 | 14.5 | 0.00 | 0.00 | 0.00 | 42 | 1013.2 |
| 20260509151743 | 20 | 84 | 3.2 | 17.7 | 0.00 | 0.00 | 0.00 | 42 | 1013.3 |
| 20260509151239 | 20 | 60 | 4.8 | 17.7 | 0.00 | 0.00 | 0.00 | 42 | 1013.1 |
| 20260509150735 | 20 | 69 | 14.5 | 17.7 | 0.00 | 0.00 | 0.00 | 42 | 1013.3 |
| 20260509150231 | 20 | 72 | 6.4 | 16.1 | 0.00 | 0.00 | 0.00 | 41 | 1013.2 |
| 20260509145727 | 20 | 145 | 8.0 | 17.7 | 0.00 | 0.00 | 0.00 | 41 | 1013.2 |
| 20260509145222 | 20 | 329 | 3.2 | 16.1 | 0.00 | 0.00 | 0.00 | 40 | 1013.3 |
| 20260509144718 | 20 | 179 | 11.3 | 16.1 | 0.00 | 0.00 | 0.00 | 39 | 1013.3 |
| 20260509144214 | 20 | 40 | 4.8 | 11.3 | 0.00 | 0.00 | 0.00 | 39 | 1012.9 |
| 20260509143710 | 20 | 58 | 9.7 | 14.5 | 0.00 | 0.00 | 0.00 | 38 | 1013.2 |
| 20260509143206 | 21 | 27 | 3.2 | 4.8 | 0.00 | 0.00 | 0.00 | 37 | 1012.7 |
| 20260509142702 | 20 | 96 | 4.8 | 14.5 | 0.00 | 0.00 | 0.00 | 39 | 1013.0 |
| 20260509142158 | 20 | 154 | 6.4 | 16.1 | 0.00 | 0.00 | 0.00 | 39 | 1013.2 |
| 20260509141654 | 20 | 111 | 8.0 | 12.9 | 0.00 | 0.00 | 0.00 | 38 | 1012.8 |
| 20260509141150 | 21 | 17 | 4.8 | 12.9 | 0.00 | 0.00 | 0.00 | 37 | 1013.0 |
| 20260509140646 | 20 | 99 | 8.0 | 14.5 | 0.00 | 0.00 | 0.00 | 38 | 1013.1 |